Regional Weather Roundup
Issued by NWS

Home | Current Version | Previous Version | Text Only | Print | Product List | Glossary Off
Versions: 1 2 3 4 5 6 7 8 9 10 11 12 13 14 15 16 17 18 19 20 21 22 23 24 25 26 27 28 29 30 31 32 33 34 35 36 37 38 39 40 41 42 43 44 45 46 47 48 49 50

000
ASUS43 KOAX 301410
RWRNE

WEATHER ROUNDUP FOR NEBRASKA
NATIONAL WEATHER SERVICE OMAHA NE
900 AM CDT TUE SEP 30 2014

NOTES: SATELLITE DATA IS BEING USED TO AUGMENT CLOUD COVER ABOVE
       12000 FEET.
       "FAIR" INDICATES FEW OR NO CLOUDS BELOW 12,000 FEET WITH NO
       SIGNIFICANT WEATHER AND/OR OBSTRUCTIONS TO VISIBILITY.

  * THESE STATIONS DO NOT REPORT WEATHER SUCH AS RAIN...SNOW OR FOG.

NEZ001>004-019>022-054>056-301500-
NEBRASKA PANHANDLE

CITY           SKY/WX    TMP DP  RH WIND       PRES   REMARKS
SCOTTSBLUFF    CLOUDY    56  44  64 W20G35    29.69R
ALLIANCE       CLOUDY    52  48  86 W16       29.67R
CHADRON        LGT RAIN  52  49  89 W26G38    29.52R
KIMBALL        CLOUDY    51  42  72 W18G26    29.77R
SIDNEY         PTSUNNY   53  44  71 SW17      29.78R
$$

NEZ057>060-069>072-079>082-301500-
SOUTHWEST NEBRASKA

CITY           SKY/WX    TMP DP  RH WIND       PRES   REMARKS
NORTH PLATTE   SUNNY     54  48  80 S10       29.77S
IMPERIAL       SUNNY     52  47  83 SW9       29.81S
LEXINGTON      MOSUNNY   58  53  84 S6        29.80S
MCCOOK         SUNNY     54  50  86 SW9       29.82S
OGALLALA       MOSUNNY   53  49  86 W5        29.77S
$$

NEZ005>010-023>029-035>040-094-301500-
NORTH CENTRAL NEBRASKA

CITY           SKY/WX    TMP DP  RH WIND       PRES   REMARKS
VALENTINE      PTSUNNY   56  47  71 S25G37    29.61F
AINSWORTH      CLOUDY    56  47  72 S14G22    29.68R
BROKEN BOW     PTSUNNY   59  51  75 S9        29.77R
O`NEILL        PTSUNNY   65  62  91 S13G22    29.73R
ORD            MOSUNNY   63  56  78 SW17      29.75R
THEDFORD       PTSUNNY   57  48  73 S20G25    29.71F
$$

NEZ041-046>049-061>064-073>077-083>087-301500-
SOUTH CENTRAL NEBRASKA

CITY           SKY/WX    TMP DP  RH WIND       PRES   REMARKS
GRAND ISLAND   PTSUNNY   66  58  75 S15       29.82R
AURORA         PTSUNNY   65  59  81 S12G18    29.82S
HASTINGS       PTSUNNY   65  56  72 S12       29.82R
HEBRON         HVY RAIN  63  59  87 S9        29.87S
HOLDREGE       MOSUNNY   58  52  81 SE10      29.83R
KEARNEY *      MOSUNNY   61  52  72 S14       29.83R
YORK           PTSUNNY   64  61  88 S17       29.84R
$$

NEZ011>018-030>034-042>045-301500-
NORTHEAST NEBRASKA

CITY           SKY/WX    TMP DP  RH WIND       PRES   REMARKS
NORFOLK        CLOUDY    63  61  93 SE15G23   29.80F
ALBION         PTSUNNY   63  60  90 S14       29.78S
BLAIR          CLOUDY    65  59  79 SE6       29.87S
COLUMBUS *     PTSUNNY   64  59  82 S9        29.84S
FREMONT        CLOUDY    66  58  77 SE7       29.86S
TEKAMAH        CLOUDY    64  59  83 SE12G17   29.86F
WAYNE          CLOUDY    62  59  90 SE10G16   29.84S
$$

NEZ050>053-065>068-078-088>093-301500-
SOUTHEAST NEBRASKA

CITY           SKY/WX    TMP DP  RH WIND       PRES   REMARKS
LINCOLN        CLOUDY    68  59  73 S10       29.86R
OMAHA EPPLEY   CLOUDY    66  58  75 SE7       29.88S
BEATRICE       CLOUDY    67  58  73 S10       29.87R
FALLS CITY     MOSUNNY   62  59  90 SE6       29.89S
NEBRASKA CITY  MOSUNNY   65  58  77 S7        29.88S
PLATTSMOUTH      N/A     64  58  80 SE7       29.88S
$$

NEZ044-045-051>053-067-301500-
OMAHA AREA

CITY           SKY/WX    TMP DP  RH WIND       PRES   REMARKS
OMAHA EPPLEY   CLOUDY    66  58  75 SE7       29.88S
BLAIR          CLOUDY    65  59  79 SE6       29.87S
FREMONT        CLOUDY    66  58  77 SE7       29.86S
MILLARD        CLOUDY    66  59  79 SE7       29.87S
OFFUTT AFB     CLOUDY    65  64  96 E9        29.87S
PLATTSMOUTH      N/A     64  58  80 SE7       29.88S
WAHOO          CLOUDY    64  58  80 SE3       29.85S
$$



USA.gov is the U.S. government's official web portal to all federal, state and local government web resources and services.